Weather in Raznezh'ye

Russia / Nizhny Novgorod Oblast'     56°11′02″N   45°40′52″E
temp.,
°C
wind,
m/s
gust,
m/s
humid.,
%
clouds,
%
prec.,
mm/h
press.,
hPa
HPBL,
m
7 may, fri
fri700:00+12s41479100 0.0 1011535
03:00+11s413817 0.0 1010397
06:00+11s41180100 0.1 1010395
09:00+13s41271100 0.1 1009621
12:00+16ssw71261100 0.6 10091552
15:00+9nw6883100 1.2 1011513
18:00+7nnw2591100 1.7 1013282
21:00+5ssw1295100 1.7 101630
8 may, sat
sat800:00+5ssw2295100 0.0 101720
03:00+4ssw11944 0.0 101810
06:00+7sse11861 0.0 101890
09:00+12se23635 0.0 1017809
12:00+15se3442100 0.0 10161776
15:00+15se455170 0.0 10131569
18:00+13se4873100 0.0 1012748
21:00+9se3992100 0.1 1011242
9 may, sun
sun900:00+9sse41385100 0.0 1010387
03:00+10sse41283100 0.3 1009431
06:00+11sse41383100 0.3 1009447
09:00+14s51180100 0.7 1009626
12:00+17s5867100 0.0 10101069
15:00+15sse61285100 0.7 1010796
18:00+12sw4794100 1.4 1012605
21:00+9w3696100 2.6 1016341
10 may, mon
mon1000:00+8nw1397100 0.1 1017177
03:00+7nw2598100 0.1 1019127
06:00+8nw3696100 0.0 1022374
09:00+8nnw3696100 0.3 1024417
12:00+11n468698 0.1 1025676
15:00+14n466756 0.1 10261067
18:00+12nne466797 0.0 1027925
21:00+8nne22865 0.0 102927
11 may, tue
tue1100:00+6nne379415 0.0 1029146
03:00+5nne289678 0.0 1030188
06:00+7ne310826 0.0 1031310
09:00+14ene474712 0.0 1032822
12:00+18ene45355 0.0 10311242
15:00+19ene34355 0.0 10301400
18:00+17ene355220 0.0 1030256
21:00+11ene22765 0.0 103028